Gage, OK

12:52 AM CST on February 20, 2017 (GMT -0600)
Gage

Weather History for KGAG - October, 2013

Change the Weather History Date:

Sunday, October 27, 2013

  Actual Average Record
Temperature  
Mean Temperature 50 °F -  
Max Temperature 73 °F 69 °F 89 °F (1950)
Min Temperature 26 °F 42 °F 17 °F (2012)
Degree Days  
Heating Degree Days 16    
Moisture  
Dew Point 30 °F    
Average Humidity 56    
Maximum Humidity 92    
Minimum Humidity 18    
Precipitation  
Precipitation 0.00 in - - ()
Sea Level Pressure  
Sea Level Pressure 30.05 in    
Wind  
Wind Speed 8 mph (SSW)    
Max Wind Speed 18 mph    
Max Gust Speed 22 mph    
Visibility 10 miles    
Events Snow    
Averages and records for this station are not official NWS values.
T = Trace of Precipitation, MM = Missing Value Source: NWS Daily Summary

Daily Weather History Graph

Daily Weather History Graph

Search for Another Location

Airport or City:

Trip Planner

Search our weather history database for the weather conditions in past years. The results will help you decide how hot, cold, wet, or windy it might be!

Date:

Astronomy

Oct. 27, 2013 Rise Set
Actual Time 7:57 AM CDT 6:47 PM CDT
Civil Twilight 7:31 AM CDT 7:14 PM CDT
Nautical Twilight 7:00 AM CDT 7:44 PM CDT
Astronomical Twilight 6:30 AM CDT 8:14 PM CDT
Moon 1:07 AM CDT (10/27) 2:47 PM CDT (10/27)
Length of Visible Light 11h 43m
Length of Day
10h 50m
Last Quarter, 43% of the Moon is Illuminated
Oct 27
Last Quarter
Nov 3
New
Nov 9
First Quarter
Nov 17
Full
Nov 25
Last Quarter

Hourly Weather History & Observations

Time (CDT) Temp. Windchill Dew Point Humidity Pressure Visibility Wind Dir Wind Speed Gust Speed Precip Events Conditions
12:53 AM 35.1 °F 30.1 °F 30.9 °F 85% 30.20 in 9.0 mi WSW 5.8 mph - 0.00 in Snow Light Snow
1:53 AM 34.0 °F 29.8 °F 30.0 °F 85% 30.19 in 9.0 mi WSW 4.6 mph - 0.00 in Snow Light Snow
2:53 AM 30.9 °F 25.2 °F 28.0 °F 89% 30.20 in 9.0 mi WSW 5.8 mph - 0.00 in Snow Light Snow
3:53 AM 30.0 °F 25.2 °F 28.0 °F 92% 30.19 in 9.0 mi WSW 4.6 mph - 0.00 in   Clear
4:53 AM 28.0 °F 22.8 °F 26.1 °F 92% 30.18 in 9.0 mi WSW 4.6 mph - 0.00 in   Clear
5:53 AM 28.0 °F 22.8 °F 26.1 °F 92% 30.17 in 9.0 mi SW 4.6 mph - 0.00 in Snow Light Snow
6:53 AM 26.1 °F 20.5 °F 24.1 °F 92% 30.17 in 9.0 mi WSW 4.6 mph - 0.00 in Snow Light Snow
7:53 AM 28.0 °F 24.2 °F 25.0 °F 88% 30.16 in 10.0 mi SSW 3.5 mph - 0.00 in   Clear
8:53 AM 30.0 °F 25.2 °F 27.0 °F 88% 30.17 in 10.0 mi SW 4.6 mph - 0.00 in   Clear
9:53 AM 42.1 °F 38.4 °F 36.0 °F 79% 30.15 in 10.0 mi WSW 5.8 mph - 0.00 in   Clear
10:53 AM 55.9 °F - 35.1 °F 45% 30.12 in 10.0 mi SSW 8.1 mph - N/A   Clear
11:53 AM 63.0 °F - 37.0 °F 38% 30.08 in 10.0 mi South 10.4 mph 17.3 mph N/A   Clear
12:53 PM 66.9 °F - 34.0 °F 30% 30.06 in 10.0 mi South 10.4 mph - N/A   Clear
1:53 PM 70.0 °F - 30.0 °F 23% 30.01 in 10.0 mi South 12.7 mph 20.7 mph N/A   Clear
2:53 PM 73.0 °F - 30.0 °F 20% 29.96 in 10.0 mi South 17.3 mph 21.9 mph N/A   Clear
3:53 PM 73.9 °F - 28.0 °F 18% 29.93 in 10.0 mi South 16.1 mph - N/A   Clear
4:53 PM 73.0 °F - 30.9 °F 21% 29.92 in 10.0 mi South 13.8 mph - N/A   Clear
5:53 PM 70.0 °F - 28.9 °F 22% 29.91 in 10.0 mi South 16.1 mph - N/A   Clear
6:53 PM 63.0 °F - 28.0 °F 27% 29.92 in 10.0 mi South 12.7 mph - N/A   Clear
7:53 PM 57.9 °F - 28.0 °F 32% 29.93 in 10.0 mi South 15.0 mph - N/A   Clear
8:53 PM 55.9 °F - 28.0 °F 34% 29.93 in 10.0 mi South 13.8 mph - N/A   Clear
9:53 PM 55.0 °F - 28.0 °F 35% 29.92 in 10.0 mi South 18.4 mph - N/A   Clear
10:53 PM 54.0 °F - 34.0 °F 47% 29.91 in 10.0 mi South 16.1 mph - N/A   Clear
11:53 PM 54.0 °F - 39.9 °F 59% 29.91 in 10.0 mi South 18.4 mph - N/A   Clear